Zurück zum Katalog

COSMOS 643

AktivMilitärLEO
NORAD 7267·PAYLOAD·🇷🇺 Russia

Gestartet Apr 23, 1974 von Plesetsk Cosmodrome

Loading…

Nächste Überflüge (nächste 24 Stunden)

TLE

AktuellSource: Space-Track

Epoche: Sep 14, 2026, 13:15 UTC

1 07267U 74024C   26257.55251227  .00000001  00000-0  98348-4 0  9997
2 07267  74.0223 355.2512 0083070 267.3771 102.3941 12.61593796412901

Verfolge COSMOS 643 in Echtzeit mit AllMySat

Download on the App Store